| time (UTC) | temp F | wind direction | speed knots | gust knots | rain 1hr in | rain 24hr in | rain mn in | humidity % | barometer mb |
| 20260508000041 | 73 | 224 | 5.2 | 13.0 | 0.00 | 0.00 | 0.00 | 32 | 1007.9 |
| 20260507234544 | 73 | 222 | 6.1 | 13.9 | 0.00 | 0.00 | 0.00 | 32 | 1008.0 |
| 20260507233056 | 73 | 205 | 7.8 | 14.8 | 0.00 | 0.00 | 0.00 | 32 | 1008.1 |
| 20260507231540 | 73 | 230 | 8.7 | 16.5 | 0.00 | 0.00 | 0.00 | 32 | 1008.2 |
| 20260507230040 | 73 | 254 | 7.0 | 14.8 | 0.00 | 0.00 | 0.00 | 31 | 1008.4 |
| 20260507224554 | 73 | 211 | 7.8 | 15.6 | 0.00 | 0.00 | 0.00 | 32 | 1008.6 |
| 20260507223045 | 73 | 243 | 7.0 | 15.6 | 0.00 | 0.00 | 0.00 | 32 | 1008.6 |
| 20260507221544 | 73 | 207 | 8.7 | 14.8 | 0.00 | 0.00 | 0.00 | 32 | 1008.7 |
| 20260507220042 | 73 | 217 | 7.0 | 13.9 | 0.00 | 0.00 | 0.00 | 31 | 1009.0 |
| 20260507214541 | 73 | 250 | 5.2 | 13.9 | 0.00 | 0.00 | 0.00 | 33 | 1009.0 |
| 20260507213041 | 72 | 165 | 7.0 | 18.2 | 0.00 | 0.00 | 0.00 | 32 | 1009.2 |
| 20260507211542 | 72 | 252 | 8.7 | 14.8 | 0.00 | 0.00 | 0.00 | 31 | 1009.5 |
| 20260507210050 | 72 | 199 | 7.0 | 19.1 | 0.00 | 0.00 | 0.00 | 31 | 1009.6 |
| 20260507204545 | 73 | 249 | 7.0 | 17.4 | 0.00 | 0.00 | 0.00 | 32 | 1009.8 |
| 20260507203045 | 72 | 302 | 8.7 | 17.4 | 0.00 | 0.00 | 0.00 | 33 | 1010.1 |
| 20260507201540 | 71 | 298 | 7.0 | 17.4 | 0.00 | 0.00 | 0.00 | 35 | 1010.3 |
| 20260507200038 | 70 | 213 | 7.8 | 20.0 | 0.00 | 0.00 | 0.00 | 34 | 1010.4 |
| 20260507194614 | 70 | 225 | 9.6 | 17.4 | 0.00 | 0.00 | 0.00 | 34 | 1010.6 |
| 20260507193045 | 70 | 229 | 8.7 | 14.8 | 0.00 | 0.00 | 0.00 | 34 | 1010.9 |
| 20260507191543 | 69 | 238 | 7.8 | 20.0 | 0.00 | 0.00 | 0.00 | 34 | 1011.0 |
| 20260507190050 | 68 | 163 | 8.7 | 15.6 | 0.00 | 0.00 | 0.00 | 37 | 1011.1 |
| 20260507184540 | 68 | 209 | 7.8 | 16.5 | 0.00 | 0.00 | 0.00 | 39 | 1011.4 |
| 20260507183044 | 68 | 221 | 9.6 | 15.6 | 0.00 | 0.00 | 0.00 | 37 | 1011.6 |
| 20260507181553 | 67 | 196 | 7.8 | 14.8 | 0.00 | 0.00 | 0.00 | 41 | 1012.0 |
| 20260507180043 | 66 | 220 | 7.8 | 18.2 | 0.00 | 0.00 | 0.00 | 41 | 1012.3 |
| 20260507174552 | 66 | 207 | 6.1 | 18.2 | 0.00 | 0.00 | 0.00 | 43 | 1012.7 |
| 20260507173103 | 65 | 194 | 10.4 | 18.2 | 0.00 | 0.00 | 0.00 | 43 | 1012.9 |
| 20260507171546 | 64 | 221 | 9.6 | 18.2 | 0.00 | 0.00 | 0.00 | 45 | 1013.0 |
| 20260507170108 | 64 | 246 | 7.8 | 18.2 | 0.00 | 0.00 | 0.00 | 45 | 1013.1 |
| 20260507164549 | 63 | 223 | 7.8 | 17.4 | 0.00 | 0.00 | 0.00 | 48 | 1013.2 |
| 20260507163041 | 63 | 290 | 9.6 | 18.2 | 0.00 | 0.00 | 0.00 | 48 | 1013.6 |
| 20260507161556 | 63 | 236 | 7.0 | 17.4 | 0.00 | 0.00 | 0.00 | 49 | 1013.8 |
| 20260507160042 | 62 | 228 | 9.6 | 18.2 | 0.00 | 0.00 | 0.00 | 47 | 1013.8 |
| 20260507154543 | 62 | 258 | 6.1 | 15.6 | 0.00 | 0.00 | 0.00 | 50 | 1013.9 |
| 20260507153041 | 62 | 238 | 3.5 | 11.3 | 0.00 | 0.00 | 0.00 | 53 | 1014.0 |
| 20260507151546 | 61 | 226 | 3.5 | 12.2 | 0.00 | 0.00 | 0.00 | 54 | 1014.3 |
| 20260507150042 | 59 | 284 | 4.3 | 16.5 | 0.00 | 0.00 | 0.00 | 54 | 1014.4 |
| 20260507144546 | 59 | 281 | 5.2 | 13.9 | 0.00 | 0.00 | 0.00 | 57 | 1014.5 |
| 20260507143044 | 58 | 275 | 2.6 | 16.5 | 0.00 | 0.00 | 0.00 | 59 | 1014.5 |
| 20260507141545 | 58 | 258 | 5.2 | 14.8 | 0.00 | 0.00 | 0.00 | 57 | 1014.5 |
| 20260507140044 | 56 | 284 | 2.6 | 8.7 | 0.00 | 0.00 | 0.00 | 63 | 1014.7 |
| 20260507134546 | 54 | 241 | 2.6 | 9.6 | 0.00 | 0.00 | 0.00 | 66 | 1014.7 |
| 20260507133042 | 53 | 257 | 4.3 | 11.3 | 0.00 | 0.00 | 0.00 | 68 | 1014.5 |
| 20260507131541 | 51 | 165 | 4.3 | 11.3 | 0.00 | 0.00 | 0.00 | 71 | 1014.6 |
| 20260507130039 | 50 | 207 | 4.3 | 7.8 | 0.00 | 0.00 | 0.00 | 73 | 1014.7 |
| 20260507124541 | 49 | 232 | 3.5 | 9.6 | 0.00 | 0.00 | 0.00 | 75 | 1014.7 |
| 20260507123045 | 48 | 211 | 3.5 | 8.7 | 0.00 | 0.00 | 0.00 | 76 | 1015.0 |
| 20260507121546 | 47 | 239 | 2.6 | 9.6 | 0.00 | 0.00 | 0.00 | 77 | 1015.0 |
| 20260507120053 | 46 | 217 | 2.6 | 8.7 | 0.00 | 0.00 | 0.00 | 78 | 1014.9 |
| 20260507114544 | 45 | 238 | 3.5 | 7.8 | 0.00 | 0.00 | 0.00 | 80 | 1014.8 |
| 20260507113049 | 44 | 215 | 1.7 | 7.8 | 0.00 | 0.00 | 0.00 | 82 | 1014.8 |
| 20260507111542 | 43 | 191 | 1.7 | 5.2 | 0.00 | 0.00 | 0.00 | 82 | 1014.8 |
| 20260507110046 | 43 | 219 | 0.9 | 3.5 | 0.00 | 0.00 | 0.00 | 82 | 1014.8 |
| 20260507104542 | 43 | 227 | 0.9 | 6.1 | 0.00 | 0.00 | 0.00 | 81 | 1014.8 |
| 20260507103044 | 43 | 250 | 0.9 | 5.2 | 0.00 | 0.00 | 0.00 | 80 | 1014.9 |
| 20260507101544 | 43 | 250 | 0.9 | 2.6 | 0.00 | 0.00 | 0.00 | 79 | 1015.0 |
| 20260507100043 | 44 | 239 | 1.7 | 2.6 | 0.00 | 0.00 | 0.00 | 76 | 1015.1 |
| 20260507094544 | 45 | 215 | 1.7 | 5.2 | 0.00 | 0.00 | 0.00 | 75 | 1015.2 |
| 20260507093044 | 45 | 215 | 2.6 | 3.5 | 0.00 | 0.00 | 0.00 | 74 | 1015.4 |
| 20260507091546 | 45 | 240 | 0.9 | 3.5 | 0.00 | 0.00 | 0.00 | 74 | 1015.3 |
| 20260507090046 | 45 | 225 | 0.9 | 2.6 | 0.00 | 0.00 | 0.00 | 74 | 1015.5 |
| 20260507084543 | 45 | 221 | 0.9 | 3.5 | 0.00 | 0.00 | 0.00 | 73 | 1015.5 |
| 20260507083043 | 44 | 225 | 0.0 | 2.6 | 0.00 | 0.00 | 0.00 | 74 | 1015.6 |
| 20260507081544 | 44 | 0 | 0.0 | 0.9 | 0.00 | 0.00 | 0.00 | 74 | 1015.8 |
| 20260507080047 | 43 | 0 | 0.0 | 1.7 | 0.00 | 0.00 | 0.00 | 74 | 1015.7 |
| 20260507074548 | 43 | 0 | 0.0 | 1.7 | 0.00 | 0.00 | 0.00 | 74 | 1015.8 |
| 20260507073059 | 43 | 0 | 0.0 | 0.9 | 0.00 | 0.00 | 0.00 | 73 | 1015.9 |
| 20260507071543 | 43 | 0 | 0.0 | 0.9 | 0.00 | 0.00 | 0.00 | 72 | 1016.0 |
| 20260507070043 | 43 | 0 | 0.0 | 0.9 | 0.00 | 0.00 | 0.00 | 71 | 1016.2 |
| 20260507064546 | 43 | 0 | 0.0 | 0.0 | 0.00 | 0.00 | 0.00 | 69 | 1016.3 |
| 20260507063046 | 44 | 0 | 0.0 | 0.9 | 0.00 | 0.00 | 0.00 | 67 | 1016.3 |
| 20260507061542 | 44 | 0 | 0.0 | 0.9 | 0.00 | 0.00 | 0.00 | 64 | 1016.4 |
| 20260507060046 | 44 | 248 | 0.0 | 0.9 | 0.00 | 0.00 | 0.00 | 63 | 1016.5 |
| 20260507054544 | 44 | 0 | 0.0 | 0.0 | 0.00 | 0.00 | 0.00 | 62 | 1016.7 |
| 20260507053041 | 45 | 0 | 0.0 | 0.0 | 0.00 | 0.00 | 0.00 | 59 | 1016.7 |
| 20260507051547 | 47 | 0 | 0.0 | 1.7 | 0.00 | 0.00 | 0.00 | 57 | 1016.7 |
| 20260507050053 | 47 | 0 | 0.0 | 0.0 | 0.00 | 0.00 | 0.00 | 56 | 1016.6 |
| 20260507044542 | 47 | 0 | 0.0 | 1.7 | 0.00 | 0.00 | 0.00 | 55 | 1016.6 |
| 20260507043048 | 46 | 0 | 0.0 | 0.0 | 0.00 | 0.00 | 0.00 | 57 | 1016.7 |
| 20260507041547 | 45 | 0 | 0.0 | 0.0 | 0.00 | 0.00 | 0.00 | 56 | 1016.7 |
| 20260507040042 | 46 | 0 | 0.0 | 0.0 | 0.00 | 0.00 | 0.00 | 55 | 1016.7 |
| 20260507034546 | 47 | 0 | 0.0 | 0.9 | 0.00 | 0.00 | 0.00 | 54 | 1016.9 |
| 20260507033100 | 45 | 0 | 0.0 | 0.0 | 0.00 | 0.00 | 0.00 | 55 | 1017.0 |
| 20260507031545 | 46 | 0 | 0.0 | 0.0 | 0.00 | 0.00 | 0.00 | 50 | 1017.0 |
| 20260507030041 | 47 | 0 | 0.0 | 0.0 | 0.00 | 0.00 | 0.00 | 48 | 1017.0 |
| 20260507024551 | 47 | 0 | 0.0 | 0.0 | 0.00 | 0.00 | 0.00 | 46 | 1016.8 |
| 20260507023040 | 49 | 0 | 0.0 | 0.0 | 0.00 | 0.00 | 0.00 | 43 | 1016.7 |
| 20260507021547 | 49 | 0 | 0.0 | 0.0 | 0.00 | 0.00 | 0.00 | 43 | 1016.5 |
| 20260507020042 | 51 | 0 | 0.0 | 0.0 | 0.00 | 0.00 | 0.00 | 39 | 1016.4 |
| 20260507014544 | 51 | 0 | 0.0 | 0.0 | 0.00 | 0.00 | 0.00 | 40 | 1016.2 |
| 20260507013044 | 53 | 0 | 0.0 | 1.7 | 0.00 | 0.00 | 0.00 | 37 | 1016.3 |
| 20260507011541 | 55 | 306 | 1.7 | 2.6 | 0.00 | 0.00 | 0.00 | 33 | 1016.3 |
| 20260507010041 | 57 | 291 | 1.7 | 3.5 | 0.00 | 0.00 | 0.00 | 32 | 1016.2 |
| 20260507004539 | 59 | 298 | 4.3 | 7.0 | 0.00 | 0.00 | 0.00 | 29 | 1016.2 |
| 20260507003043 | 59 | 305 | 5.2 | 9.6 | 0.00 | 0.00 | 0.00 | 28 | 1016.2 |
| 20260507001605 | 60 | 304 | 7.8 | 12.2 | 0.00 | 0.00 | 0.00 | 29 | 1016.2 |